Overview Statistics Trail Chart Weather Telemetry Raw packets
 

This is the latest recevied weather packets stored in our database for station/object KD4PMP. If no packets are shown the sender has not sent any weather packets the latest 10 day(s).

<< 50 51 52 53 54 55 56 >>
Time Temp. Humidity Pressure Rain* Wind** Luminosity Snow
1787847427 28.89° C 71% 1014.8 hPa 0 mm - - -
1787846821 28.89° C 73% 1014.7 hPa 0 mm - - -
1787846213 27.78° C 75% 1014.7 hPa 0 mm - - -
1787845607 27.78° C 75% 1014.8 hPa 0 mm - - -
1787845001 27.22° C 76% 1014.7 hPa 0 mm - - -
1787844394 27.22° C 75% 1014.8 hPa 0 mm - - -
1787843788 26.67° C 79% 1014.8 hPa 0 mm - - -
1787843182 26.67° C 79% 1014.8 hPa 0 mm - - -
1787842575 26.11° C 81% 1014.7 hPa 0 mm - - -
1787841969 25.56° C 82% 1014.5 hPa 0 mm - - -
1787841363 25° C 83% 1014.3 hPa 0 mm - - -
1787840756 25° C 83% 1014.3 hPa 0 mm - - -
1787840152 25° C 86% 1014.4 hPa 0 mm - - -
1787839544 24.44° C 86% 1014.5 hPa 0 mm - - -
1787838937 23.89° C 87% 1014.4 hPa 0 mm - - -
1787838331 23.33° C 86% 1014.3 hPa 0 mm - - -
1787837724 23.33° C 88% 1014.5 hPa 0 mm - - -
1787837118 22.22° C 92% 1014.5 hPa 0 mm - - -
1787836512 22.22° C 93% 1014.5 hPa 0 mm - - -
1787835905 21.11° C 95% 1014.4 hPa 0 mm - - -
1787835299 20.56° C 96% 1014.3 hPa 0 mm - - -
1787834692 20° C 96% 1014.4 hPa 0 mm - - -
1787834086 20° C 98% 1014.4 hPa 0 mm - - -
1787833480 19.44° C 98% 1014.3 hPa 0 mm - - -
1787832873 19.44° C 97% 1014.3 hPa 0 mm - - -

* Rain latest hour (hover to see other rain measurements)
** Current wind speed in m/s (hover to see current wind gust speed)